Location: *
(46.4000°N, 12.6667°E)
Time: 17:53:51
(UTC+00:00)

SL-4 R/B - Pass Details

Date: 09 April 2020
Orbit: 428 x 666 km, 51.6° (Epoch: 28 May)

Event Time Altitude Azimuth Distance (km) Brightness Sun altitude
Rises 19:02:55 0° 265° (W) 2,395 6.4 -12.8°
Reaches altitude 10° 19:05:05 10° 272° (W) 1,524 5.4 -13.1°
Maximum altitude 19:08:20 42° 345° (NNW) 623 2.6 -13.6°
Enters shadow 19:11:39 10° 59° (ENE) 1,545 4.0 -14.1°
